Zurück zum Katalog

STARLINK-36047

AktivKommunikationVLEO
NORAD 66795·PAYLOAD·🇺🇸 United States

Gestartet Dec 1, 2025 von Cape Canaveral Space Force Station

Loading…

Nächste Überflüge (nächste 24 Stunden)

TLE

AktuellSource: CelesTrak SupGP

Epoche: Sep 15, 2026, 04:18 UTC

1 66795C 25278E   26258.17965278  .00033496  00000+0  12134-2 0  2580
2 66795  43.0023 124.3442 0001443 277.2445 235.4398 15.27558210    11

Verfolge STARLINK-36047 in Echtzeit mit AllMySat

Download on the App Store